Location: Newark
(28.1667°N, 17.3333°W)
Time: 15:36:23
(UTC+00:00)

OTV 5 (USA 277) - Visible Passes

Search period start: 19 February 2019 00:00
Search period end: 01 March 2019 00:00
Orbit: 342 x 346 km, 54.5° (Epoch: 17 February)

Date Brightness Start Highest point End Pass type
(mag) Time Alt. Az. Time Alt. Az. Time Alt. Az.
19 Feb ? 06:55:18 19° W 06:56:07 22° SW 06:58:24 10° S visible
20 Feb ? 05:47:38 11° SE 05:47:38 11° SE 05:47:50 10° SE visible
20 Feb ? 20:28:14 10° SSW 20:30:00 32° SSW 20:30:00 32° SSW visible
21 Feb ? 20:52:18 10° WSW 20:53:55 21° WNW 20:53:55 21° WNW visible
22 Feb ? 19:40:42 10° SSW 19:43:30 56° SE 19:46:13 11° NE visible
23 Feb ? 20:04:41 10° WSW 20:07:09 25° NW 20:09:37 10° NNE visible
